Weather in Bottrop

Germany     51°31′20″N   6°55′40″E
temp.,
°C
wind,
m/s
gust,
m/s
humid.,
%
clouds,
%
prec.,
mm/h
press.,
hPa
HPBL,
m
18 may, tue
tue1823:00+8wsw279753 0.3 1009182
02:00+7ssw2498100 0.3 1010107
05:00+8ssw389894 0.1 1010436
08:00+8sw41098100 1.3 1011692
11:00+10wsw4895100 3.4 1012699
14:00+13w4784100 4.7 10121360
17:00+13wnw368052 1.3 1013993
20:00+11wnw37866 2.3 1014375
19 may, wed
wed1923:00+8w26955 0.3 1016125
02:00+7sw2397100 0.3 101687
05:00+6ssw269814 0.0 1016164
08:00+8sw479356 0.0 1017354
11:00+12sw4672100 0.1 1017959
14:00+12wsw578286 1.0 1017988
17:00+13sw446688 0.6 10171218
20:00+11w247788 0.9 1017358
20 may, thu
thu2023:00+10w1391100 0.4 101986
02:00+7wnw24965 0.8 1020111
05:00+6w24977 0.0 1021107
08:00+8wsw259116 0.0 1023275
11:00+13w45582 0.0 10231232
14:00+16w454981 0.1 10231904
17:00+16wsw3552100 0.4 10221534
20:00+14w24796 1.3 1022143
21 may, fri
fri2123:00+10w1187100 0.1 102210
02:00+9sse2492100 0.1 102098
05:00+9s2889100 0.0 1018248
08:00+10s31181100 0.0 1017551
11:00+10s41191100 0.9 1015644
14:00+15sw41166100 1.1 10121786
17:00+12sse2895100 2.6 1010424
20:00+12s31195100 3.7 1008644
22 may, sat
sat2223:00+10sw499725 0.4 1007391
02:00+10ssw3898100 0.6 1007253
05:00+10ssw3109514 4.7 1006654
08:00+10sw6119219 4.9 10071075
11:00+12sw7137182 0.4 10081522
14:00+14sw8145789 0.8 10081729
17:00+13sw7157146 0.7 10081820
20:00+11sw7158490 2.1 10081399